Princeton, MN

12:47 AM CST on February 14, 2016 (GMT -0600)
Princeton Municipal

Weather History for KPNM - October, 2013

Change the Weather History Date:

Friday, October 4, 2013

  Actual Average Record
Temperature  
Mean Temperature 56 °F -  
Max Temperature 60 °F 61 °F 80 °F (2011)
Min Temperature 53 °F 38 °F 21 °F (2000)
Degree Days  
Heating Degree Days 8    
Growing Degree Days 6 (Base 50)    
Moisture  
Dew Point 52 °F    
Average Humidity 90    
Maximum Humidity 94    
Minimum Humidity 72    
Precipitation  
Precipitation 0.07 in - - ()
Sea Level Pressure  
Sea Level Pressure 29.98 in    
Wind  
Wind Speed 10 mph (NE)    
Max Wind Speed 16 mph    
Max Gust Speed 26 mph    
Visibility 8 miles    
Events Rain , Thunderstorm    
Averages and records for this station are not official NWS values.
T = Trace of Precipitation, MM = Missing Value Source: NWS Daily Summary

Daily Weather History Graph

Daily Weather History Graph

Search for Another Location

Airport or City:

Trip Planner

Search our weather history database for the weather conditions in past years. The results will help you decide how hot, cold, wet, or windy it might be!

Date:

Astronomy

Oct. 04, 2013 Rise Set
Actual Time 7:16 AM CDT 6:48 PM CDT
Civil Twilight 6:47 AM CDT 7:18 PM CDT
Nautical Twilight 6:12 AM CDT 7:52 PM CDT
Astronomical Twilight 5:38 AM CDT 8:26 PM CDT
Moon 6:53 AM CDT (10/4) 6:29 PM CDT (10/4)
Length of Visible Light 12h 30m
Length of Day
11h 31m
Waning Crescent, 0% of the Moon is Illuminated
Oct 4
Waning Crescent
Oct 4
New
Oct 11
First Quarter
Oct 18
Full
Oct 26
Last Quarter

Hourly Weather History & Observations

Time (CDT) Temp. Dew Point Humidity Pressure Visibility Wind Dir Wind Speed Gust Speed Precip Events Conditions
12:14 AM 53.6 °F 51.8 °F 94% 29.98 in 10.0 mi North 9.2 mph - N/A   Overcast
12:33 AM 53.6 °F 51.8 °F 94% 29.97 in 10.0 mi North 8.1 mph - N/A   Overcast
12:53 AM 53.6 °F 50.0 °F 88% 29.97 in 10.0 mi North 10.4 mph - N/A   Overcast
1:13 AM 53.6 °F 51.8 °F 94% 29.98 in 10.0 mi North 9.2 mph - N/A   Overcast
1:33 AM 53.6 °F 51.8 °F 94% 29.98 in 10.0 mi North 9.2 mph - N/A   Overcast
1:53 AM 53.6 °F 51.8 °F 94% 29.97 in 5.0 mi North 10.4 mph - N/A   Overcast
2:13 AM 53.6 °F 51.8 °F 94% 29.97 in 5.0 mi NNE 11.5 mph 17.3 mph N/A   Overcast
2:33 AM 53.6 °F 51.8 °F 94% 29.98 in 4.0 mi NNE 9.2 mph - N/A   Overcast
2:53 AM 53.6 °F 51.8 °F 94% 29.99 in 4.0 mi NNE 8.1 mph - N/A   Overcast
3:13 AM 53.6 °F 51.8 °F 94% 29.99 in 7.0 mi NNE 8.1 mph - N/A   Overcast
3:33 AM 53.6 °F 51.8 °F 94% 29.98 in 7.0 mi NNE 6.9 mph - N/A   Overcast
3:53 AM 53.6 °F 51.8 °F 94% 29.98 in 10.0 mi NNE 8.1 mph - N/A   Overcast
4:13 AM 53.6 °F 51.8 °F 94% 29.97 in 10.0 mi NE 11.5 mph - N/A   Overcast
4:33 AM 53.6 °F 51.8 °F 94% 29.97 in 10.0 mi NE 9.2 mph 17.3 mph N/A   Overcast
4:53 AM 53.6 °F 51.8 °F 94% 29.98 in 7.0 mi NNE 6.9 mph - N/A   Overcast
5:13 AM 53.6 °F 51.8 °F 94% 29.99 in 10.0 mi NE 10.4 mph - N/A   Overcast
5:33 AM 53.6 °F 51.8 °F 94% 29.99 in 7.0 mi NE 6.9 mph - N/A   Overcast
5:53 AM 53.6 °F 51.8 °F 94% 30.00 in 5.0 mi NE 8.1 mph - N/A   Overcast
6:13 AM 53.6 °F 51.8 °F 94% 30.00 in 4.0 mi NNE 6.9 mph - N/A   Light Drizzle
6:33 AM 53.6 °F 51.8 °F 94% 30.01 in 4.0 mi NNE 8.1 mph - N/A   Overcast
6:53 AM 53.6 °F 51.8 °F 94% 30.00 in 5.0 mi NNE 11.5 mph 17.3 mph N/A   Overcast
7:13 AM 53.6 °F 51.8 °F 94% 30.01 in 7.0 mi NNE 11.5 mph 16.1 mph N/A   Overcast
7:33 AM 53.6 °F 51.8 °F 94% 30.01 in 7.0 mi North 12.7 mph 17.3 mph N/A   Overcast
7:53 AM 53.6 °F 51.8 °F 94% 30.01 in 10.0 mi NNE 10.4 mph 16.1 mph N/A   Overcast
8:13 AM 53.6 °F 51.8 °F 94% 30.02 in 10.0 mi NNE 8.1 mph - N/A   Overcast
8:33 AM 53.6 °F 51.8 °F 94% 30.02 in 10.0 mi NNE 9.2 mph - N/A   Overcast
8:53 AM 53.6 °F 51.8 °F 94% 30.01 in 10.0 mi NNE 10.4 mph 21.9 mph N/A   Overcast
9:13 AM 53.6 °F 51.8 °F 94% 30.02 in 4.0 mi NE 12.7 mph 17.3 mph N/A   Overcast
9:33 AM 53.6 °F 51.8 °F 94% 30.03 in 3.0 mi NE 11.5 mph 17.3 mph N/A   Overcast
9:53 AM 53.6 °F 51.8 °F 94% 30.02 in 4.0 mi NE 9.2 mph 19.6 mph N/A   Overcast
10:13 AM 53.6 °F 51.8 °F 94% 30.02 in 4.0 mi NE 10.4 mph 17.3 mph N/A   Overcast
10:33 AM 53.6 °F 51.8 °F 94% 30.01 in 2.5 mi NE 13.8 mph 20.7 mph N/A   Light Drizzle
10:53 AM 53.6 °F 51.8 °F 94% 30.01 in 4.0 mi NNE 12.7 mph 17.3 mph N/A   Light Drizzle
11:13 AM 55.4 °F 51.8 °F 88% 30.01 in 10.0 mi NE 13.8 mph 19.6 mph N/A   Overcast
11:33 AM 55.4 °F 51.8 °F 88% 30.00 in 10.0 mi NE 12.7 mph 19.6 mph N/A   Overcast
11:53 AM 55.4 °F 51.8 °F 88% 30.01 in 10.0 mi NE 15.0 mph 23.0 mph N/A   Overcast
12:13 PM 55.4 °F 51.8 °F 88% 30.02 in 10.0 mi NE 11.5 mph 21.9 mph N/A   Overcast
12:33 PM 57.2 °F 51.8 °F 82% 30.02 in 10.0 mi NE 10.4 mph 18.4 mph N/A   Overcast
12:53 PM 57.2 °F 51.8 °F 82% 30.02 in 10.0 mi ENE 11.5 mph 18.4 mph N/A   Overcast
1:13 PM 57.2 °F 51.8 °F 82% 30.01 in 10.0 mi NE 10.4 mph 17.3 mph N/A   Overcast
1:33 PM 57.2 °F 51.8 °F 82% 30.01 in 10.0 mi NE 10.4 mph - N/A   Overcast
1:53 PM 57.2 °F 51.8 °F 82% 30.00 in 10.0 mi NE 9.2 mph - N/A   Overcast
2:13 PM 59.0 °F 51.8 °F 77% 29.99 in 10.0 mi NE 11.5 mph - N/A   Overcast
2:33 PM 59.0 °F 51.8 °F 77% 29.98 in 10.0 mi NE 9.2 mph 23.0 mph N/A   Overcast
2:53 PM 59.0 °F 51.8 °F 77% 29.98 in 10.0 mi NE 10.4 mph 16.1 mph N/A   Overcast
3:13 PM 60.8 °F 51.8 °F 72% 29.96 in 10.0 mi NE 11.5 mph 19.6 mph N/A   Overcast
3:33 PM 60.8 °F 51.8 °F 72% 29.95 in 10.0 mi NE 11.5 mph 17.3 mph N/A   Overcast
3:53 PM 59.0 °F 51.8 °F 77% 29.97 in 10.0 mi ENE 8.1 mph 20.7 mph N/A   Overcast
4:13 PM 59.0 °F 53.6 °F 82% 29.98 in 10.0 mi NE 12.7 mph 20.7 mph N/A   Overcast
4:33 PM 57.2 °F 53.6 °F 88% 29.97 in 4.0 mi ENE 13.8 mph 20.7 mph N/A   Drizzle
4:53 PM 57.2 °F 53.6 °F 88% 29.96 in 10.0 mi NE 9.2 mph 17.3 mph N/A   Overcast
5:13 PM 57.2 °F 53.6 °F 88% 29.97 in 10.0 mi ENE 11.5 mph 16.1 mph N/A   Overcast
5:33 PM 57.2 °F 53.6 °F 88% 29.98 in 10.0 mi NE 10.4 mph - N/A   Overcast
5:53 PM 57.2 °F 53.6 °F 88% 29.98 in 10.0 mi NE 10.4 mph - N/A   Overcast
6:13 PM 57.2 °F 53.6 °F 88% 29.97 in 10.0 mi NE 12.7 mph 16.1 mph N/A   Overcast
6:34 PM 57.2 °F 53.6 °F 88% 29.96 in 10.0 mi NE 6.9 mph 17.3 mph N/A   Overcast
6:53 PM 57.2 °F 51.8 °F 82% 29.96 in 10.0 mi NE 13.8 mph 20.7 mph N/A   Overcast
7:13 PM 57.2 °F 51.8 °F 82% 29.94 in 10.0 mi NE 13.8 mph 21.9 mph N/A   Overcast
7:33 PM 55.4 °F 51.8 °F 88% 29.95 in 10.0 mi NE 11.5 mph 19.6 mph N/A   Overcast
7:54 PM 55.4 °F 51.8 °F 88% 29.96 in 10.0 mi ENE 11.5 mph 20.7 mph N/A   Overcast
8:13 PM 55.4 °F 51.8 °F 88% 29.96 in 7.0 mi NE 12.7 mph 19.6 mph N/A   Overcast
8:33 PM 55.4 °F 51.8 °F 88% 29.95 in 5.0 mi NE 10.4 mph 20.7 mph N/A   Overcast
8:54 PM 55.4 °F 51.8 °F 88% 29.96 in 10.0 mi NE 15.0 mph 21.9 mph N/A   Overcast
9:13 PM 55.4 °F 51.8 °F 88% 29.94 in 10.0 mi NE 12.7 mph 20.7 mph N/A   Overcast
9:33 PM 55.4 °F 51.8 °F 88% 29.93 in 7.0 mi ENE 12.7 mph 23.0 mph N/A   Overcast
9:54 PM 53.6 °F 51.8 °F 94% 29.92 in 7.0 mi ENE 11.5 mph 18.4 mph N/A Rain Light Rain
10:13 PM 53.6 °F 51.8 °F 94% 29.92 in 4.0 mi NE 13.8 mph 20.7 mph N/A   Overcast
10:33 PM 53.6 °F 51.8 °F 94% 29.89 in 5.0 mi NE 16.1 mph 26.5 mph N/A   Overcast
10:54 PM 53.6 °F 51.8 °F 94% 29.89 in 4.0 mi NE 12.7 mph 25.3 mph N/A Rain Light Rain
11:13 PM 53.6 °F 51.8 °F 94% 29.88 in 4.0 mi NE 13.8 mph 20.7 mph N/A   Light Drizzle
11:33 PM 53.6 °F 51.8 °F 94% 29.88 in 5.0 mi ENE 12.7 mph 25.3 mph 0.06 in Rain , Thunderstorm Heavy Thunderstorms and Rain
11:53 PM 53.6 °F 51.8 °F 94% 29.88 in 10.0 mi ENE 11.5 mph 18.4 mph 0.07 in Rain , Thunderstorm Light Thunderstorms and Rain